Location: Maiden_LMO
(35.5760°N, 81.2120°W)
Time: 19:14:18
(UTC-05:00)

ADEOS II - Visible Passes

Search period start: 22 February 2017 00:00
Search period end: 04 March 2017 00:00
Orbit: 800 x 801 km, 98.4° (Epoch: 22 February)

Date Brightness Start Highest point End Pass type
(mag) Time Alt. Az. Time Alt. Az. Time Alt. Az.
22 Feb 3.8 04:17:15 10° NNE 04:19:23 25° NNE 04:19:23 25° NNE visible
22 Feb 4.0 05:59:34 10° NW 06:00:20 11° NW 06:00:20 11° NW visible
23 Feb 4.3 03:51:09 10° NNE 03:52:50 20° NE 03:52:50 20° NE visible
23 Feb 3.6 05:31:36 10° NNW 05:33:48 18° NW 05:33:48 18° NW visible
24 Feb 4.8 03:25:29 10° NE 03:26:18 13° NE 03:26:18 13° NE visible
24 Feb 3.3 05:04:32 10° N 05:07:16 27° NNW 05:07:16 27° NNW visible
25 Feb 3.2 04:37:52 10° N 04:40:44 33° N 04:40:44 33° N visible
26 Feb 3.6 04:11:29 10° NNE 04:14:12 31° NNE 04:14:12 31° NNE visible
26 Feb 3.8 05:53:18 10° NW 05:55:09 13° NW 05:55:09 13° NW visible
27 Feb 4.2 03:45:27 10° NNE 03:47:40 23° NE 03:47:40 23° NE visible
27 Feb 3.4 05:25:37 10° NNW 05:28:37 22° NW 05:28:37 22° NW visible
28 Feb 4.8 03:19:55 10° NE 03:21:08 14° ENE 03:21:08 14° ENE visible
28 Feb 2.9 04:58:39 10° N 05:02:05 34° NNW 05:02:05 34° NNW visible
01 Mar 2.8 04:32:03 10° N 04:35:33 43° N 04:35:33 43° N visible
02 Mar 3.3 04:05:44 10° NNE 04:09:01 37° NE 04:09:01 37° NE visible
02 Mar 3.7 05:47:07 10° NNW 05:49:59 15° WNW 05:49:59 15° WNW visible
03 Mar 4.1 03:39:46 10° NE 03:42:29 25° ENE 03:42:29 25° ENE visible
03 Mar 3.1 05:19:40 10° NNW 05:23:27 26° WNW 05:23:27 26° WNW visible
